TimeCDT,TemperatureF,Dew PointF,Humidity,Sea Level PressureIn,VisibilityMPH,Wind Direction,Wind SpeedMPH,Gust SpeedMPH,PrecipitationIn,Events,Conditions,WindDirDegrees,DateUTC
12:21 AM,48.9,46.0,90,30.00,4.0,NNE,12.7,-,0.06,Rain,Rain,20,2014-03-29 05:21:00
12:38 AM,48.9,45.0,86,29.99,4.0,NNE,13.8,-,0.09,Rain,Light Rain,30,2014-03-29 05:38:00
12:53 AM,48.0,45.0,89,29.98,5.0,NE,15.0,-,0.10,Rain,Light Rain,40,2014-03-29 05:53:00
1:02 AM,48.0,45.0,89,29.98,6.0,NE,16.1,23.0,0.00,Rain,Light Rain,40,2014-03-29 06:02:00
1:53 AM,48.0,44.1,86,29.98,4.0,North,9.2,-,0.00,Rain,Light Rain,350,2014-03-29 06:53:00
2:03 AM,48.0,44.1,86,29.98,4.0,North,9.2,-,0.02,Rain,Light Rain,360,2014-03-29 07:03:00
2:30 AM,46.9,44.1,90,29.96,5.0,North,13.8,-,0.02,Rain,Light Rain,10,2014-03-29 07:30:00
2:46 AM,46.9,44.1,90,29.96,5.0,North,9.2,-,0.02,,Overcast,360,2014-03-29 07:46:00
2:53 AM,46.9,44.1,90,29.95,5.0,NNE,12.7,-,0.02,,Overcast,30,2014-03-29 07:53:00
3:40 AM,46.9,43.0,86,29.94,3.0,North,15.0,-,0.02,Rain,Light Rain,10,2014-03-29 08:40:00
3:53 AM,46.0,43.0,89,29.94,3.0,North,11.5,-,0.04,Rain,Light Rain,360,2014-03-29 08:53:00
4:00 AM,46.0,44.1,93,29.94,2.5,North,11.5,-,0.01,Rain,Rain,350,2014-03-29 09:00:00
4:51 AM,46.4,42.8,87,29.95,3.0,North,11.5,-,0.07,Rain,Light Rain,360,2014-03-29 09:51:00
4:53 AM,46.0,43.0,89,29.95,3.0,North,11.5,-,0.07,Rain,Light Rain,360,2014-03-29 09:53:00
5:53 AM,45.0,43.0,93,29.97,3.0,North,9.2,-,0.10,Rain,Light Rain,350,2014-03-29 10:53:00
6:53 AM,45.0,42.1,90,30.00,4.0,NNW,11.5,-,0.05,Rain,Light Rain,340,2014-03-29 11:53:00
7:53 AM,45.0,42.1,90,30.04,4.0,NNW,12.7,-,0.03,Rain,Light Rain,340,2014-03-29 12:53:00
8:53 AM,45.0,41.0,86,30.06,6.0,NNW,12.7,-,0.03,,Overcast,340,2014-03-29 13:53:00
9:53 AM,46.0,41.0,83,30.09,5.0,NNW,15.0,23.0,N/A,,Haze,340,2014-03-29 14:53:00
10:41 AM,46.0,39.9,79,30.09,6.0,NNW,15.0,24.2,N/A,,Haze,340,2014-03-29 15:41:00
10:53 AM,46.0,39.0,76,30.10,7.0,North,20.7,25.3,N/A,,Overcast,350,2014-03-29 15:53:00
11:53 AM,46.0,37.9,73,30.12,8.0,NNW,16.1,25.3,N/A,,Overcast,340,2014-03-29 16:53:00
12:53 PM,46.0,37.0,71,30.11,9.0,NNW,16.1,26.5,N/A,,Overcast,340,2014-03-29 17:53:00
1:53 PM,46.0,37.0,71,30.12,8.0,NNW,17.3,24.2,N/A,,Overcast,340,2014-03-29 18:53:00
2:53 PM,46.0,37.0,71,30.14,6.0,NNW,11.5,20.7,N/A,,Haze,340,2014-03-29 19:53:00
3:53 PM,46.0,37.0,71,30.15,5.0,NNW,15.0,23.0,N/A,,Haze,340,2014-03-29 20:53:00
4:53 PM,45.0,36.0,71,30.18,5.0,NW,10.4,23.0,N/A,,Haze,320,2014-03-29 21:53:00
5:53 PM,45.0,36.0,71,30.20,6.0,North,15.0,-,N/A,,Haze,350,2014-03-29 22:53:00
6:53 PM,44.1,35.1,71,30.23,6.0,NNW,13.8,23.0,N/A,,Haze,340,2014-03-29 23:53:00
7:53 PM,44.1,34.0,68,30.24,6.0,North,11.5,-,N/A,,Haze,360,2014-03-30 00:53:00
8:53 PM,43.0,33.1,68,30.27,6.0,NNW,13.8,-,N/A,,Haze,330,2014-03-30 01:53:00
9:53 PM,43.0,33.1,68,30.27,7.0,NNW,10.4,-,N/A,,Overcast,330,2014-03-30 02:53:00
10:53 PM,42.1,32.0,67,30.26,7.0,NNW,3.5,-,N/A,,Overcast,330,2014-03-30 03:53:00
11:53 PM,39.9,32.0,73,30.25,6.0,NNW,5.8,-,N/A,,Haze,340,2014-03-30 04:53:00